Simultaneous Nadir Overpasses (SNOs) Predictions

Prediction of SNOs between GOES-14 and NPP Satellite Orbit:

Table of predicted SNOs for the next 14.0 days since TLE Epoch: 12/31/2021
Index Date Time (GOES-14) GOES-14 Lat,Lon NPP Lat,Lon Distance(km) Time Diff (sec)
1 12/31/2021 20:34:15 0.00,-104.22 -0.69,-107.41 363.06 80
2 01/01/2022 20:18:09 -0.01,-104.22 0.29,-102.87 154.44 80
3 01/03/2022 08:37:37 -0.00,-104.56 0.79,-108.15 409.43 59
4 01/04/2022 08:18:30 0.01,-104.56 -0.20,-103.61 107.68 80
5 01/06/2022 20:21:38 0.00,-104.23 -0.01,-104.36 14.42 80
6 01/09/2022 08:24:38 -0.01,-104.59 0.10,-105.11 59.06 80
7 01/10/2022 08:05:52 -0.00,-104.59 -0.89,-100.57 458.71 80
8 01/11/2022 20:27:45 0.01,-104.27 -0.35,-105.85 180.39 80
9 01/12/2022 20:11:40 0.00,-104.28 0.69,-101.32 337.57 80
10 01/14/2022 08:30:46 -0.01,-104.62 0.44,-106.59 224.68 80
